Wind_Speed
12 10 10 8 11 9 12 15 10 8 5 11 16 11 11 11 9 4 7 3 4 5 3 9 7 4 4 5 8 9 10 11 13 12 12 12 13 16 16 18 16 18 18 16
13 14 14 13 10 12 13 13 11 8 5 8 13 14 7 5 7 2 8 8 5 4 4 5 7 7 7 6 5 8 10 11 12 12 10 12 16 16 15 14 15 14 19 16
14 21 17 15 14 12 15 15 10 12 17 11 20 13 9 5 2 7 9 7 8 3 5 6 10 10 10 7 10 4 7 10 14 15 14 12 9 9 10 12 16 18 15 17
16 24 19 18 18 17 12 10 15 15 21 12 16 13 14 15 6 6 12 9 12 4 6 9 13 12 11 9 9 9 7 8 13 15 15 18 18 17 17 15 14 15 15 17
21 25 23 22 20 18 8 20 20 17 20 14 10 19 14 11 4 3 9 7 13 6 7 7 10 11 10 11 9 10 9 10 12 13 16 15 15 15 14 15 17 17 15 15
20 24 26 23 21 18 15 20 21 21 23 14 6 15 12 10 7 5 8 7 13 10 9 7 10 12 10 11 9 10 9 10 11 13 14 15 15 17 17 17 20 19 18 17
20 22 21 17 14 7 10 16 21 24 24 10 11 15 16 12 15 14 14 6 15 7 9 3 6 17 14 14 14 11 12 11 12 13 14 14 13 14 17 20 19 19 19 21
21 20 21 18 14 7 11 15 18 20 23 14 18 21 13 17 21 21 15 15 13 7 6 7 4 8 14 16 10 11 14 15 13 13 13 14 14 15 17 18 18 19 21 22
20 16 23 30 25 17 10 15 16 18 18 22 25 22 13 12 10 13 18 18 9 8 6 3 11 10 10 17 15 12 12 15 16 15 14 13 15 16 17 17 16 19 21 24
10 19 24 25 22 19 19 11 18 22 20 20 23 23 14 9 13 20 22 20 8 6 11 4 7 6 12 18 16 15 13 14 16 16 15 14 15 15 16 18 19 19 19 22
14 20 17 28 29 27 18 12 7 20 26 23 20 20 14 12 14 15 6 10 10 10 8 12 15 15 15 16 18 14 15 14 14 15 14 15 13 14 14 15 18 20 21 21
24 21 19 31 25 22 22 19 14 20 24 27 22 15 12 13 18 19 13 9 10 16 7 10 15 23 18 17 19 17 17 13 11 13 12 14 14 13 14 16 19 19 22 23
33 29 27 22 34 29 24 22 23 13 19 27 26 21 17 15 17 22 21 16 9 10 10 9 20 27 23 24 23 22 16 14 13 10 10 11 12 14 16 20 20 22 24 24
41 39 34 36 26 31 35 30 28 14 16 22 25 22 21 16 15 21 24 21 16 15 19 24 14 34 37 30 26 19 14 12 12 12 12 12 13 13 17 19 23 28 27 25
48 47 45 42 37 33 33 39 33 28 27 29 19 26 21 19 13 17 20 24 27 27 28 23 13 16 30 32 27 18 15 14 14 15 13 13 14 16 20 23 24 22 26 24
58 53 54 50 44 43 32 40 37 32 34 34 26 32 29 28 26 21 23 26 29 34 31 16 26 29 32 32 21 17 17 17 16 13 10 10 15 17 21 24 27 30 29 30
60 61 56 57 53 51 41 37 39 34 38 35 33 37 35 36 34 26 25 31 32 31 33 40 38 40 32 23 15 17 16 15 11 11 14 17 18 21 23 25 27 28 30 33
63 58 63 61 56 53 45 42 42 41 38 44 44 37 41 36 39 35 32 34 32 25 28 39 29 27 25 16 16 17 15 12 13 16 18 19 20 23 25 26 27 28 30 30
41 50 58 61 61 53 48 47 47 41 43 35 41 39 36 35 38 39 39 40 36 28 24 20 19 23 23 20 16 13 12 14 15 17 18 20 23 24 25 26 28 29 30 31
40 44 50 57 61 54 40 35 35 40 52 46 34 35 39 37 42 49 41 40 36 28 27 25 22 14 11 19 13 13 14 17 16 19 21 25 26 26 25 27 28 29 31 33
41 45 50 56 58 53 50 42 33 36 47 51 42 37 42 39 40 43 40 31 23 24 20 18 15 9 12 14 12 15 17 18 19 23 25 28 27 26 27 30 31 31 31 31
38 42 48 49 53 52 46 39 37 35 47 43 43 42 46 44 35 38 35 17 20 18 16 14 11 18 17 16 21 19 20 22 24 26 28 28 27 26 27 28 27 26 27 31
33 38 42 45 45 45 44 38 41 43 41 40 44 39 39 40 44 24 21 21 22 19 18 16 18 19 20 23 26 26 24 24 25 26 29 27 26 28 29 30 30 31 32 32
34 38 40 41 39 37 37 36 38 45 44 44 31 30 34 36 31 24 26 23 21 20 20 17 19 20 22 24 23 23 25 25 25 26 25 25 26 28 30 30 30 32 32 31
31 35 38 40 39 36 34 30 35 45 45 49 23 32 30 23 26 24 20 19 18 19 19 18 19 20 22 23 24 24 24 24 24 23 26 26 27 26 26 27 28 29 31 32
27 27 29 30 36 31 33 36 34 40 39 48 47 40 37 38 30 21 20 18 19 19 21 20 18 18 20 21 22 22 22 22 23 26 25 25 24 23 23 24 26 30 33 36
Wind_Direction
282 285 272 276 270 253 250 244 248 238 339 301 285 266 265 292 320 73 23 353 14 47 89 133 145 130 122 147 151 157 162 165 154 154 162 158 163 171 179 185 194 186 194 196
272 261 257 260 249 269 277 256 233 259 233 273 294 271 271 275 343 252 293 310 19 304 338 139 146 168 144 136 152 146 155 168 170 164 163 166 174 172 181 192 198 191 197 210
252 259 259 263 257 251 269 268 266 281 267 245 285 301 305 310 321 334 340 360 341 345 237 176 191 185 155 156 129 153 153 157 186 177 168 183 182 195 182 189 205 212 214 215
239 251 256 252 258 249 235 242 253 264 273 269 286 279 275 292 319 357 347 340 330 349 219 179 185 195 179 163 139 146 179 176 173 179 184 186 191 199 201 199 207 212 207 208
237 244 243 243 247 246 233 213 242 260 261 273 274 284 298 269 235 356 343 342 329 335 278 225 205 204 189 176 167 158 178 180 176 176 189 190 198 211 214 211 210 214 212 210
241 246 255 256 249 250 252 238 244 245 251 277 255 256 267 273 211 237 278 323 311 339 291 227 210 214 196 189 181 180 180 177 188 182 184 191 201 213 221 217 221 219 215 216
238 238 244 257 253 251 273 262 256 241 251 277 256 276 280 298 273 254 257 241 269 262 297 207 193 195 226 207 175 203 198 187 185 196 196 200 198 199 207 214 218 223 228 225
254 242 242 222 216 231 274 291 260 259 254 263 250 257 265 300 307 304 272 272 255 235 297 154 145 172 231 204 194 210 205 195 191 189 196 202 200 195 202 215 217 219 226 227
251 244 242 250 227 232 222 270 272 253 240 232 227 235 236 294 327 323 288 272 240 250 227 298 202 183 195 218 234 203 220 209 200 201 196 196 205 204 203 214 217 221 227 228
252 248 234 238 232 235 235 268 252 245 239 233 244 253 261 290 317 314 311 249 274 230 206 294 214 233 229 229 224 204 204 219 203 208 209 214 208 211 207 205 219 219 220 229
246 263 215 230 232 233 228 219 276 259 249 248 238 244 254 256 288 323 318 294 279 326 231 249 279 224 233 243 243 221 202 209 209 212 208 213 223 231 230 224 218 223 224 223
247 247 240 225 227 236 238 233 236 272 253 251 256 260 244 257 286 292 284 310 297 306 283 237 335 228 216 232 238 222 202 200 216 223 213 215 223 229 232 238 241 231 227 225
246 251 250 234 220 220 231 242 249 245 266 237 248 260 248 261 281 293 288 287 306 304 283 299 309 225 223 229 223 225 210 200 205 216 219 224 230 233 240 243 242 242 234 231
243 241 237 248 245 228 229 233 246 231 249 258 253 234 238 255 285 291 292 290 299 300 297 286 297 218 201 217 217 213 213 209 209 223 234 239 245 250 255 258 251 244 237 239
242 236 240 237 240 240 228 225 235 232 229 252 240 238 248 262 270 277 283 289 293 290 291 273 235 209 209 219 208 208 216 225 232 233 234 246 260 258 258 259 270 277 267 256
245 239 242 240 237 247 235 226 225 235 234 234 241 238 254 265 266 284 288 290 289 288 297 255 248 211 224 214 204 221 227 227 229 240 251 262 265 268 267 267 263 265 263 271
241 245 244 243 240 241 244 230 228 224 229 231 231 224 246 258 258 260 275 282 290 301 278 281 274 238 234 216 220 236 235 232 234 242 253 262 266 271 273 272 272 272 272 271
233 244 247 248 244 242 247 236 234 236 233 231 237 230 234 249 252 256 263 271 277 288 304 299 256 183 235 217 225 230 234 226 236 246 262 270 274 276 278 276 271 272 273 273
228 235 243 249 250 250 247 248 249 240 237 241 241 247 236 245 245 246 255 264 271 293 299 283 334 333 251 207 214 219 230 236 246 258 271 279 283 282 276 274 272 271 269 271
231 228 233 241 245 248 246 242 250 246 234 234 234 248 239 241 240 242 251 261 273 294 280 290 296 279 184 208 210 228 231 245 261 277 283 283 283 279 278 281 277 273 271 270
236 228 229 234 240 241 241 239 244 250 235 231 231 243 237 236 241 243 255 273 276 277 280 280 274 269 213 212 243 246 256 268 276 278 283 286 283 278 286 287 282 279 275 272
234 228 229 232 236 238 237 228 227 233 238 232 234 239 235 236 237 249 246 261 274 284 286 268 249 242 241 220 243 254 260 266 271 279 283 282 284 279 286 293 288 283 280 282
232 233 233 234 238 240 237 227 223 217 232 231 231 233 239 247 232 244 250 263 280 281 273 263 252 234 240 251 247 249 260 267 275 281 278 279 286 280 282 291 289 287 285 285
229 226 230 232 233 239 236 227 224 218 222 231 235 230 232 219 217 221 240 260 269 271 269 258 255 256 251 250 260 269 274 277 278 277 280 287 288 286 284 289 294 294 293 291
234 234 231 233 226 238 236 228 219 222 221 226 246 241 233 238 224 226 242 258 265 266 269 267 264 263 264 267 270 272 274 273 275 278 283 286 286 286 288 295 297 295 295 296
235 242 247 241 231 228 229 225 213 206 214 227 232 234 244 250 211 226 238 242 254 263 265 264 264 265 263 263 263 263 266 271 275 279 283 281 284 289 293 296 299 302 304 304
Height
5888 5888 5886 5886 5884 5886 5888 5889 5888 5888 5892 5893 5893 5893 5891 5890 5888 5887 5889 5889 5887 5887 5888 5891 5891 5892 5891 5892 5893 5893 5893 5895 5896 5898 5900 5902 5904 5906 5909 5912 5915 5919 5920 5923
5886 5883 5883 5883 5882 5883 5885 5886 5884 5886 5888 5889 5889 5888 5891 5888 5885 5884 5887 5888 5884 5885 5886 5888 5889 5891 5891 5891 5892 5893 5894 5894 5896 5897 5899 5901 5904 5907 5910 5911 5915 5917 5921 5922
5882 5878 5879 5879 5879 5879 5881 5882 5881 5883 5883 5887 5885 5883 5887 5886 5884 5885 5885 5884 5885 5885 5886 5888 5889 5891 5891 5892 5891 5892 5893 5895 5897 5898 5900 5903 5903 5905 5909 5911 5913 5916 5920 5923
5877 5872 5875 5876 5877 5876 5877 5879 5879 5880 5880 5882 5881 5881 5881 5882 5883 5884 5884 5882 5883 5884 5885 5887 5889 5890 5890 5890 5889 5891 5894 5895 5896 5897 5899 5902 5904 5905 5906 5910 5914 5918 5919 5920
5872 5869 5870 5871 5873 5872 5875 5876 5876 5874 5876 5877 5877 5875 5876 5877 5880 5881 5881 5881 5883 5882 5882 5885 5887 5887 5890 5890 5890 5890 5893 5895 5895 5896 5898 5901 5903 5904 5906 5909 5914 5916 5918 5919
5866 5865 5865 5868 5868 5868 5870 5872 5873 5873 5872 5873 5876 5873 5873 5874 5876 5875 5877 5879 5880 5881 5883 5883 5885 5885 5888 5890 5890 5892 5892 5892 5894 5895 5897 5899 5901 5903 5905 5907 5908 5911 5913 5916
5859 5860 5861 5865 5866 5866 5866 5868 5869 5868 5868 5871 5873 5870 5870 5873 5874 5875 5874 5874 5876 5877 5879 5883 5883 5883 5884 5886 5886 5890 5892 5892 5892 5894 5896 5898 5899 5900 5901 5902 5905 5908 5910 5912
5852 5856 5858 5856 5858 5860 5862 5862 5863 5863 5864 5868 5869 5866 5870 5869 5870 5870 5872 5873 5872 5875 5880 5879 5880 5882 5880 5882 5885 5886 5889 5890 5890 5892 5894 5895 5897 5897 5899 5900 5902 5903 5906 5908
5846 5851 5851 5851 5852 5854 5859 5858 5859 5858 5859 5860 5863 5863 5865 5867 5868 5866 5866 5871 5870 5871 5874 5876 5877 5878 5878 5880 5882 5884 5886 5889 5888 5889 5890 5892 5894 5896 5896 5898 5899 5899 5901 5903
5843 5843 5847 5849 5846 5849 5851 5853 5852 5852 5854 5855 5857 5859 5862 5865 5864 5863 5863 5867 5867 5868 5868 5872 5875 5878 5880 5880 5878 5880 5882 5885 5886 5886 5888 5891 5892 5894 5896 5896 5897 5898 5898 5900
5836 5835 5843 5841 5840 5843 5845 5847 5848 5849 5850 5850 5851 5853 5858 5859 5858 5861 5863 5862 5863 5864 5866 5870 5873 5873 5875 5876 5877 5877 5878 5880 5881 5884 5884 5887 5889 5891 5892 5894 5894 5895 5895 5896
5826 5828 5831 5836 5838 5838 5839 5840 5842 5843 5846 5846 5847 5851 5852 5853 5855 5859 5861 5860 5860 5861 5863 5866 5868 5867 5869 5874 5874 5875 5875 5875 5878 5880 5880 5883 5885 5887 5887 5888 5888 5890 5889 5889
5818 5818 5821 5828 5832 5832 5833 5835 5836 5837 5839 5841 5843 5844 5848 5848 5851 5853 5855 5857 5855 5853 5856 5861 5864 5865 5866 5871 5871 5873 5872 5873 5874 5876 5877 5878 5880 5881 5882 5880 5881 5883 5882 5885
5810 5812 5814 5817 5824 5829 5828 5829 5831 5832 5834 5837 5836 5837 5839 5842 5845 5847 5849 5850 5852 5851 5853 5858 5858 5855 5858 5868 5870 5868 5867 5868 5869 5872 5874 5874 5875 5876 5876 5876 5874 5871 5873 5877
5803 5806 5806 5807 5813 5816 5820 5822 5825 5826 5826 5829 5832 5830 5832 5835 5838 5841 5843 5844 5844 5847 5849 5853 5854 5848 5859 5863 5862 5860 5860 5862 5862 5867 5870 5871 5870 5872 5870 5869 5860 5857 5859 5859
5792 5796 5798 5801 5805 5807 5812 5816 5819 5821 5823 5824 5826 5825 5827 5830 5833 5835 5837 5839 5842 5841 5842 5845 5849 5848 5853 5851 5851 5854 5855 5858 5860 5864 5867 5866 5866 5866 5865 5863 5862 5860 5860 5856
5784 5784 5788 5792 5797 5800 5806 5810 5812 5815 5817 5817 5818 5821 5821 5824 5827 5831 5832 5832 5834 5837 5833 5833 5834 5834 5836 5838 5843 5847 5850 5855 5858 5861 5860 5861 5862 5861 5860 5860 5857 5854 5853 5853
5775 5774 5776 5780 5787 5792 5799 5802 5804 5807 5809 5811 5810 5813 5815 5819 5822 5827 5828 5827 5831 5832 5828 5825 5805 5806 5828 5834 5835 5840 5845 5849 5852 5854 5855 5856 5856 5855 5853 5851 5851 5849 5846 5845
5758 5763 5762 5765 5772 5780 5789 5794 5798 5799 5803 5803 5805 5806 5809 5811 5814 5818 5821 5823 5828 5831 5825 5821 5813 5823 5827 5829 5832 5839 5842 5844 5846 5848 5849 5849 5848 5847 5845 5843 5842 5841 5841 5839
5744 5747 5750 5753 5757 5765 5774 5784 5786 5784 5790 5795 5800 5797 5798 5803 5807 5811 5814 5819 5825 5824 5823 5821 5823 5827 5825 5829 5830 5834 5837 5839 5840 5841 5841 5842 5840 5838 5837 5836 5834 5833 5832 5831
5732 5735 5738 5742 5744 5751 5761 5769 5773 5775 5780 5786 5794 5793 5792 5797 5799 5804 5808 5813 5815 5814 5815 5815 5816 5818 5821 5825 5826 5829 5830 5832 5833 5835 5834 5833 5831 5829 5828 5827 5825 5823 5822 5821
5720 5725 5727 5730 5733 5738 5745 5755 5761 5766 5764 5777 5784 5787 5788 5791 5795 5800 5805 5807 5806 5804 5805 5809 5811 5814 5815 5818 5823 5826 5829 5829 5829 5828 5827 5825 5823 5822 5820 5818 5816 5814 5813 5812
5711 5715 5718 5722 5726 5729 5738 5745 5750 5754 5756 5766 5774 5778 5779 5784 5791 5796 5799 5798 5800 5803 5802 5803 5805 5809 5811 5814 5821 5823 5824 5823 5822 5820 5820 5818 5816 5814 5812 5811 5809 5807 5805 5804
5700 5704 5708 5712 5719 5722 5727 5736 5742 5746 5750 5752 5763 5768 5773 5779 5784 5788 5792 5796 5797 5798 5800 5802 5803 5805 5809 5811 5811 5812 5813 5814 5814 5813 5811 5809 5807 5806 5805 5804 5802 5798 5795 5794
5694 5696 5700 5705 5712 5715 5717 5724 5732 5738 5743 5747 5752 5753 5762 5770 5775 5780 5784 5789 5792 5794 5795 5797 5798 5799 5800 5802 5803 5806 5807 5806 5806 5805 5803 5801 5801 5800 5798 5797 5794 5791 5787 5783
5686 5692 5694 5698 5703 5705 5709 5717 5722 5731 5737 5741 5748 5754 5760 5763 5766 5773 5780 5783 5786 5788 5788 5790 5792 5794 5795 5798 5799 5800 5800 5800 5798 5797 5796 5796 5794 5793 5792 5790 5787 5782 5778 5774